Home > Weather > Amman > Past weeks

Flag for Jordan Past Weather in Amman, Jordan — Yesterday and Last 2 Weeks

Now
82 °F

Low level haze.


Feels Like: 83 °F
Forecast: 70 / 90 °F
Wind: 21 mph from Northwest

Location: Amman Airport

Current Time: Jul 24, 2016 at 5:43:43 PM

Latest Report: Jul 24, 2016 at 5:00 PM


Visibility: 3 mi

Pressure: 29.77 "Hg (27.14 "Hg at 816m altitude)

Humidity: 48%

Dew Point: 61 °F

Location of AmmanLocation

Past Weather in Amman — Graph

°F

Amman Temperature Yesterday

Maximum temperature yesterday: 88 °F (at 3:00 PM)
Minimum temperature yesterday: 66 °F (at 3:00 AM)
Average temperature yesterday: 76 °F

High & Low Weather Summary for the Past Weeks

 TemperatureHumidityPressure
High97 °F (Jul 15, 2:00 PM)100% (Jul 17, 2:00 AM)29.98 "Hg (Jul 17, 2:00 AM)
Low66 °F (Jul 23, 3:00 AM)9% (Jul 15, 3:00 PM)29.74 "Hg (Jul 19, 5:00 PM)
Average81 °F40%29.86 "Hg
* Reported Jul 9 4:00 PM — Jul 24 4:00 PM, Amman, Weather by CustomWeather, © 2016

Note: Actual official high and low records may vary slightly from our data, if they occured in-between our weather recording intervals... More about our weather records

Advertising

Amman Weather History for the Previous 24 Hours

Scroll right to see more
 ConditionsComfort  
Time TempWeatherWind HumidityBarometerVisibility
4:00 PM
Sun, Jul 24
86 °FHaze.12 mph40%29.77 "Hg3 mi
3:00 PM86 °FHaze.12 mph40%29.77 "Hg3 mi
2:00 PM86 °FHaze.14 mph40%29.77 "Hg3 mi
1:00 PM84 °FHaze.7 mph43%29.77 "Hg3 mi
12:00 PM82 °FHaze.16 mph42%29.80 "Hg3 mi
11:00 AM79 °FHaze.9 mph51%29.80 "Hg3 mi
10:00 AM77 °FHaze.12 mph54%29.80 "Hg3 mi
9:00 AM73 °FHaze.5 mph65%29.80 "Hg3 mi
8:00 AM70 °FHaze.7 mph73%29.83 "Hg2 mi
7:00 AM68 °FHaze.9 mph73%29.80 "Hg3 mi
6:00 AM68 °FPassing clouds.12 mph73%29.80 "Hg3 mi
4:00 AM66 °FClear.No wind78%29.83 "Hg4 mi
3:00 AM68 °FClear.No wind73%29.83 "Hg4 mi
2:00 AM68 °FClear.9 mph73%29.83 "Hg4 mi
1:00 AM68 °FClear.9 mph73%29.83 "Hg4 mi
12:00 AM70 °FClear.No wind69%29.86 "Hg4 mi
11:00 PM
Sat, Jul 23
73 °FHaze.5 mph53%29.86 "Hg3 mi
10:00 PM75 °FHaze.9 mph50%29.86 "Hg3 mi
9:00 PM75 °FHaze.6 mph50%29.86 "Hg3 mi
8:00 PM77 °FHaze.6 mph51%29.86 "Hg3 mi
7:00 PM84 °FHaze.12 mph33%29.86 "Hg3 mi
6:00 PM86 °FHaze.12 mph33%29.86 "Hg3 mi
5:00 PM86 °FHaze.14 mph33%29.86 "Hg3 mi
Weather by CustomWeather, © 2016

See weather overviewHow to use our weather pages